PBO Station Position Time Series. Reference Frame : NAM14
Format Version,1.1.0
4-character ID,UNR2
Station name,UNevadaReno_2
Begin Date, 2006-12-04
End Date, 2015-07-22
Release Date, 2021-02-19
Reference position, 36.7734318462 North Latitude, -114.0543511728 East Longitude, 550.98882 meters elevation,
Date, North (mm), East (mm), Vertical (mm), North Std. Deviation (mm), East Std. Deviation (mm),              Vertical Std. Deviation (mm), Quality,
2006-12-04,0.00, 0.00, 0.00, 2.13, 1.82, 7.96, repro,
2006-12-05,-0.27, 0.37, 8.77, 2.02, 1.77, 7.57, repro,
2006-12-06,-0.45, -0.00, 8.16, 2.03, 1.80, 7.72, repro,
2006-12-07,-1.64, 0.29, 4.75, 2.00, 1.71, 7.46, repro,
2006-12-08,-1.07, 0.66, 12.64, 1.99, 1.71, 7.42, repro,
2006-12-09,-0.60, 0.20, 16.49, 2.09, 1.79, 7.75, repro,
2006-12-10,0.53, 1.37, 24.47, 2.01, 1.69, 7.52, repro,
2006-12-11,-0.15, -1.67, 11.62, 1.96, 1.67, 7.30, repro,
2006-12-12,-1.08, 0.15, 12.20, 2.03, 1.72, 7.56, repro,
2006-12-13,-0.91, 0.42, 9.69, 1.98, 1.71, 7.44, repro,
2006-12-14,0.66, -0.36, 11.66, 1.97, 1.70, 7.38, repro,
2006-12-15,-1.40, 0.75, 15.40, 2.00, 1.72, 7.44, repro,
2006-12-16,0.40, -1.25, 15.70, 2.04, 1.75, 7.59, repro,
2006-12-17,1.63, -2.76, 14.98, 2.10, 1.80, 8.07, repro,
2006-12-18,-0.05, -1.34, 14.76, 2.12, 1.82, 8.24, repro,
2006-12-19,0.18, 0.38, 10.24, 2.07, 1.81, 7.90, repro,
2006-12-20,0.94, -0.50, 11.91, 2.07, 1.79, 7.71, repro,
2006-12-21,-0.56, -0.44, 11.55, 1.98, 1.77, 7.49, repro,
2006-12-22,-0.40, -2.47, 15.51, 2.11, 1.88, 8.05, repro,
2006-12-23,-1.14, -0.82, 4.18, 2.05, 1.74, 7.81, repro,
2006-12-24,-0.74, -0.05, 6.39, 1.94, 1.65, 7.28, repro,
2006-12-25,-0.39, -0.21, 6.24, 1.98, 1.71, 7.43, repro,
2006-12-26,-1.02, 0.14, 8.15, 1.99, 1.71, 7.48, repro,
2006-12-27,0.47, -0.51, 28.52, 2.02, 1.77, 7.72, repro,
2006-12-28,-0.02, -1.42, 19.95, 2.14, 1.91, 8.35, repro,
2006-12-29,0.82, -1.08, 2.80, 2.03, 1.75, 7.69, repro,
2006-12-30,0.37, 0.05, 8.35, 2.01, 1.75, 7.68, repro,
2006-12-31,0.24, -0.95, 14.33, 2.20, 1.88, 8.53, repro,
2007-01-01,-0.67, -0.90, 12.19, 2.11, 1.79, 7.99, repro,
2007-01-02,0.87, -0.34, 15.60, 2.16, 1.91, 8.31, repro,
2007-01-03,0.95, 0.71, 17.25, 1.98, 1.74, 7.53, repro,
2007-01-04,0.77, -0.44, 16.60, 1.95, 1.68, 7.39, repro,
2007-01-05,1.32, -0.74, 15.38, 1.98, 1.73, 7.48, repro,
2007-01-06,-0.33, -0.98, 11.26, 1.97, 1.72, 7.40, repro,
2007-01-07,0.66, -0.96, 10.31, 1.97, 1.68, 7.33, repro,
2007-01-08,0.87, -1.34, 7.21, 2.00, 1.72, 7.43, repro,
2007-01-09,0.28, 0.22, 5.03, 1.96, 1.65, 7.25, repro,
2007-01-10,-0.20, 0.10, 10.78, 2.00, 1.69, 7.36, repro,
2007-01-11,-0.59, 0.57, 12.22, 2.03, 1.69, 7.47, repro,
2007-01-12,1.50, -0.22, 14.74, 1.95, 1.66, 7.32, repro,
2007-01-13,0.57, -0.87, 9.57, 1.91, 1.62, 7.06, repro,
2007-01-14,-0.16, -0.13, 5.07, 1.89, 1.61, 7.01, repro,
2007-01-15,0.84, -0.22, 6.09, 1.92, 1.63, 7.12, repro,
2007-01-16,-0.87, -1.02, 7.22, 1.96, 1.62, 7.17, repro,
2007-01-17,0.79, -0.26, 9.66, 1.95, 1.69, 7.28, repro,
2007-01-18,0.20, 0.59, 4.63, 2.13, 1.79, 7.97, repro,
2007-01-19,0.93, 0.23, 7.82, 2.00, 1.71, 7.40, repro,
2007-01-20,-0.66, -0.52, 12.80, 2.01, 1.71, 7.41, repro,
2007-01-21,0.54, -0.54, 17.36, 1.92, 1.62, 7.03, repro,
2007-01-22,0.83, -0.58, 7.10, 1.93, 1.62, 7.09, repro,
2007-01-23,0.37, 0.08, 8.68, 1.91, 1.63, 7.11, repro,
2007-01-24,-0.08, 0.49, 4.93, 1.92, 1.63, 7.11, repro,
2007-01-25,-0.36, 0.20, 2.48, 2.00, 1.71, 7.26, repro,
2007-01-26,0.31, -0.29, 11.51, 1.91, 1.62, 6.99, repro,
2007-01-27,-1.02, -0.09, 11.41, 1.92, 1.61, 6.99, repro,
2007-01-28,-0.42, 0.52, 6.10, 1.93, 1.61, 7.04, repro,
2007-01-29,-1.16, 0.10, 11.71, 1.93, 1.62, 7.07, repro,
2007-01-30,-0.22, 0.38, 15.75, 1.92, 1.61, 7.03, repro,
2007-01-31,-0.88, -0.01, 17.65, 1.90, 1.61, 6.96, repro,
2007-02-01,-0.64, 0.59, 15.69, 1.94, 1.65, 7.16, repro,
2007-02-02,-0.39, 0.54, 9.02, 1.96, 1.62, 7.21, repro,
2007-02-03,-0.12, 0.15, 5.78, 1.96, 1.62, 7.19, repro,
2007-02-04,-0.32, -0.28, 7.72, 1.92, 1.61, 7.04, repro,
2007-02-05,0.02, -0.34, 6.01, 1.90, 1.61, 6.97, repro,
2007-02-06,0.16, 0.74, 6.58, 1.94, 1.61, 7.01, repro,
2007-02-07,0.13, 1.07, 10.09, 1.92, 1.61, 6.99, repro,
2007-02-08,-0.93, 1.18, 4.02, 2.02, 1.69, 7.30, repro,
2007-02-09,-0.38, 0.85, 11.42, 1.95, 1.68, 7.21, repro,
2007-02-10,-0.02, 1.19, 13.32, 1.92, 1.61, 7.03, repro,
2007-02-11,0.42, 1.53, 17.18, 1.93, 1.61, 7.08, repro,
2007-02-12,-0.41, 1.28, 12.00, 1.93, 1.62, 7.05, repro,
2007-02-13,0.08, -0.37, 11.39, 1.91, 1.60, 6.96, repro,
2007-02-14,-0.42, -1.18, 8.58, 1.92, 1.60, 6.96, repro,
2007-02-15,-0.35, 1.01, 8.15, 1.91, 1.61, 7.01, repro,
2007-02-16,-0.51, 0.70, 9.60, 1.91, 1.61, 7.02, repro,
2007-02-17,-0.41, 0.88, 13.61, 1.95, 1.66, 7.13, repro,
2007-02-18,-0.58, 0.66, 12.27, 1.93, 1.60, 7.03, repro,
2007-02-19,0.88, 0.19, 23.62, 1.92, 1.60, 6.99, repro,
2007-02-20,-0.81, -0.24, 20.87, 1.93, 1.61, 7.05, repro,
2007-02-21,-1.08, 0.41, 14.73, 1.93, 1.61, 7.06, repro,
2007-02-22,0.11, 1.30, 10.21, 1.94, 1.61, 7.10, repro,
2007-02-23,-2.09, -1.60, 11.29, 1.98, 1.63, 7.20, repro,
2007-02-24,0.44, -1.21, 13.43, 1.93, 1.60, 7.04, repro,
2007-02-25,-0.20, -0.28, 16.34, 1.92, 1.60, 7.00, repro,
2007-02-26,-0.68, 0.71, 17.74, 1.93, 1.60, 7.04, repro,
2007-02-27,0.47, 1.32, 25.90, 1.93, 1.62, 7.13, repro,
2007-02-28,-2.02, 0.64, 24.49, 1.96, 1.62, 7.18, repro,
2007-03-01,-1.15, -0.57, 17.22, 1.99, 1.68, 7.35, repro,
2007-03-02,-0.13, -0.28, 12.40, 1.99, 1.68, 7.33, repro,
2007-03-03,-0.61, 0.38, 7.53, 1.95, 1.65, 7.20, repro,
2007-03-04,0.37, 0.18, 3.41, 1.95, 1.63, 7.13, repro,
2007-03-05,0.01, -0.61, 7.00, 1.96, 1.64, 7.18, repro,
2007-03-06,-0.72, -0.06, 8.55, 1.97, 1.64, 7.24, repro,
2007-03-07,-0.36, -0.45, 9.93, 1.97, 1.64, 7.23, repro,
2007-03-08,0.17, 0.46, 17.93, 1.96, 1.63, 7.18, repro,
2007-03-09,0.24, 0.31, 14.22, 1.96, 1.63, 7.16, repro,
2007-03-10,2.28, 0.90, 13.88, 2.01, 1.68, 7.36, repro,
2007-03-11,-0.17, 0.21, 8.98, 1.97, 1.64, 7.22, repro,
2007-03-12,0.40, 0.82, 10.03, 2.00, 1.69, 7.47, repro,
2007-03-13,-0.23, 0.79, 13.18, 1.95, 1.63, 7.17, repro,
2007-03-14,0.15, 0.55, 14.19, 1.92, 1.58, 6.95, repro,
2007-03-15,0.36, 0.97, 11.89, 1.94, 1.63, 7.14, repro,
2007-03-16,0.25, 0.76, 9.93, 1.96, 1.64, 7.18, repro,
2007-03-17,0.50, -0.15, 11.43, 1.96, 1.61, 7.13, repro,
2007-03-18,-1.84, 1.16, 17.39, 1.93, 1.59, 7.04, repro,
2007-03-19,-0.55, 0.48, 17.41, 1.92, 1.58, 6.99, repro,
2007-03-20,1.85, -0.12, 27.38, 2.00, 1.62, 7.23, repro,
2007-03-21,1.17, 0.04, 31.63, 2.07, 1.75, 7.76, repro,
2007-03-22,-0.40, 0.97, 16.51, 1.96, 1.64, 7.25, repro,
2007-03-23,0.30, -0.38, 14.16, 1.95, 1.62, 7.17, repro,
2007-03-24,-0.80, 0.87, 16.60, 1.95, 1.62, 7.16, repro,
2007-03-25,-1.24, 0.22, 20.28, 1.93, 1.59, 7.07, repro,
2007-03-26,-0.67, 0.12, 18.68, 2.05, 1.74, 7.62, repro,
2007-03-27,-0.98, -0.21, 13.95, 2.03, 1.62, 7.38, repro,
2007-03-28,-0.67, -0.71, 14.59, 2.04, 1.63, 7.43, repro,
2007-03-29,-2.11, 1.29, 6.98, 1.96, 1.61, 7.18, repro,
2007-03-30,-1.46, 0.64, 7.84, 1.94, 1.59, 7.07, repro,
2007-03-31,-1.20, 0.87, 13.29, 1.95, 1.60, 7.13, repro,
2007-04-01,-0.71, 0.78, 15.55, 1.96, 1.62, 7.20, repro,
2007-04-02,-1.28, 1.26, 15.57, 1.94, 1.59, 7.08, repro,
2007-04-03,-0.96, 1.53, 10.41, 1.99, 1.65, 7.34, repro,
2007-04-04,-1.11, 1.44, 7.76, 1.95, 1.61, 7.18, repro,
2007-04-05,-0.76, 0.78, 6.85, 2.02, 1.67, 7.47, repro,
2007-04-06,-1.25, 1.58, 6.63, 2.06, 1.71, 7.63, repro,
2007-04-07,-1.18, 1.31, 13.53, 1.98, 1.62, 7.22, repro,
2007-04-08,-1.95, 0.97, 16.05, 1.94, 1.59, 7.04, repro,
2007-04-09,-1.17, 2.17, 12.86, 1.92, 1.58, 7.00, repro,
2007-04-10,0.25, 0.38, 8.86, 1.98, 1.64, 7.24, repro,
2007-04-11,-1.92, 0.11, 13.94, 1.99, 1.64, 7.22, repro,
2007-04-12,-1.18, 0.32, 18.34, 1.97, 1.59, 7.12, repro,
2007-04-13,-2.07, 0.04, 5.85, 1.95, 1.59, 7.06, repro,
2007-04-14,-0.96, 2.04, 11.22, 1.94, 1.58, 7.03, repro,
2007-04-15,-1.19, 0.66, 18.14, 1.93, 1.58, 7.04, repro,
2007-04-16,-2.35, 1.37, 9.37, 1.95, 1.59, 7.11, repro,
2007-04-17,-1.37, 1.04, 11.75, 1.97, 1.59, 7.15, repro,
2007-04-18,-0.56, 0.57, 7.89, 1.97, 1.60, 7.15, repro,
2007-04-19,-0.80, 1.16, 16.28, 1.94, 1.58, 7.06, repro,
2007-04-20,1.01, 2.23, 13.85, 2.04, 1.66, 7.39, repro,
2007-04-21,-1.19, 1.19, 10.49, 1.94, 1.59, 7.11, repro,
2007-04-22,-1.09, 1.63, 16.14, 1.98, 1.60, 7.23, repro,
2007-04-23,-1.94, -0.08, 9.58, 2.00, 1.63, 7.23, repro,
2007-04-24,-0.74, 1.22, 2.77, 1.97, 1.62, 7.15, repro,
2007-04-25,-1.56, 1.98, 9.02, 1.96, 1.61, 7.10, repro,
2007-04-26,-0.15, 2.82, 9.34, 1.96, 1.59, 7.10, repro,
2007-04-27,-0.71, 1.79, 4.37, 1.97, 1.59, 7.17, repro,
2007-04-28,-1.13, 1.94, 4.68, 2.07, 1.65, 7.43, repro,
2007-04-29,-1.64, 1.44, 4.22, 1.96, 1.57, 7.08, repro,
2007-04-30,-1.53, 1.54, 7.31, 1.95, 1.57, 7.04, repro,
2007-05-01,-1.52, 2.21, 10.86, 1.95, 1.58, 7.04, repro,
2007-05-02,-1.47, 2.52, 10.51, 2.02, 1.61, 7.38, repro,
2007-05-03,-0.51, 2.22, 8.67, 2.07, 1.65, 7.60, repro,
2007-05-04,-2.04, 1.96, 15.83, 1.97, 1.58, 7.15, repro,
2007-05-05,-1.39, 1.86, 9.97, 2.00, 1.61, 7.18, repro,
2007-05-06,-0.87, 1.75, 9.28, 1.96, 1.57, 7.04, repro,
2007-05-07,-1.10, 1.67, 5.48, 1.96, 1.58, 7.10, repro,
2007-05-08,-1.69, 1.25, 9.25, 1.98, 1.58, 7.16, repro,
2007-05-09,-1.89, 2.17, 5.75, 1.97, 1.57, 7.08, repro,
2007-05-10,-0.63, 1.33, 5.48, 2.14, 1.68, 7.70, repro,
2007-05-11,-1.24, 3.05, 2.71, 2.06, 1.63, 7.42, repro,
2007-05-12,-1.05, 2.80, 6.88, 1.97, 1.57, 7.10, repro,
2007-05-13,0.31, 2.74, 9.07, 2.03, 1.61, 7.31, repro,
2007-05-14,-1.39, 2.18, 6.08, 2.00, 1.61, 7.22, repro,
2007-05-15,-1.24, 2.18, 2.83, 1.98, 1.58, 7.09, repro,
2007-05-16,-1.62, 3.16, 3.34, 1.98, 1.57, 7.06, repro,
2007-05-17,0.01, 2.61, 5.30, 1.99, 1.62, 7.18, repro,
2007-05-18,0.44, 2.69, 7.39, 2.07, 1.71, 7.50, repro,
2007-05-19,-1.15, 1.52, 6.28, 2.02, 1.62, 7.24, repro,
2007-05-20,-0.61, 2.48, 4.33, 2.05, 1.65, 7.34, repro,
2007-05-21,-2.09, 0.74, 11.36, 2.01, 1.61, 7.17, repro,
2007-05-22,-2.56, 1.26, 6.68, 2.00, 1.62, 7.19, repro,
2007-05-23,-2.19, 3.89, 4.38, 2.05, 1.66, 7.38, repro,
2007-05-24,-2.56, 2.42, 4.48, 2.05, 1.65, 7.36, repro,
2007-05-25,-2.11, 3.24, 9.50, 1.99, 1.59, 7.10, repro,
2007-05-26,-2.04, 2.17, 7.79, 2.09, 1.73, 7.57, repro,
2007-05-27,-2.46, 3.19, 5.64, 2.03, 1.64, 7.23, repro,
2007-05-28,-2.55, 3.27, 6.89, 1.97, 1.58, 7.01, repro,
2007-05-29,-2.25, 1.73, 8.63, 1.97, 1.58, 7.05, repro,
2007-05-30,-1.29, 2.73, 6.50, 2.02, 1.59, 7.13, repro,
2007-05-31,-2.21, 3.00, 3.80, 2.06, 1.63, 7.31, repro,
2007-06-01,-0.91, 2.13, 9.39, 1.99, 1.59, 7.09, repro,
2007-06-02,-1.28, 2.97, 10.54, 1.96, 1.58, 7.09, repro,
2007-06-03,-1.34, 3.23, 6.31, 1.96, 1.58, 7.05, repro,
2007-06-04,-1.09, 1.54, 13.12, 1.95, 1.58, 7.03, repro,
2007-06-05,-2.25, 1.83, 18.53, 2.01, 1.60, 7.17, repro,
2007-06-06,-2.63, 3.48, 12.33, 1.97, 1.60, 7.10, repro,
2007-06-07,-2.44, 1.89, 15.06, 1.97, 1.59, 7.08, repro,
2007-06-08,-1.39, 3.29, 6.70, 1.97, 1.59, 7.11, repro,
2007-06-09,-2.49, 3.53, 4.75, 1.97, 1.61, 7.12, repro,
2007-06-10,-1.77, 2.27, 9.86, 1.96, 1.58, 7.04, repro,
2007-06-11,0.56, 2.15, 14.16, 2.02, 1.68, 7.35, repro,
2007-06-12,-2.02, 2.26, 11.73, 2.02, 1.69, 7.36, repro,
2007-06-13,-1.38, 2.85, 3.67, 2.01, 1.65, 7.31, repro,
2007-06-14,-1.77, 3.43, 4.09, 1.98, 1.63, 7.15, repro,
2007-06-15,-1.90, 2.98, 9.27, 1.96, 1.59, 7.09, repro,
2007-06-16,0.11, 2.73, 10.25, 1.96, 1.59, 7.07, repro,
2007-06-17,-0.94, 2.77, 9.51, 1.95, 1.60, 7.08, repro,
2007-06-18,-2.07, 3.45, 11.89, 1.96, 1.60, 7.12, repro,
2007-06-19,-3.07, 4.09, 5.68, 1.94, 1.59, 7.03, repro,
2007-06-20,-1.95, 3.55, 2.35, 1.95, 1.58, 7.01, repro,
2007-06-21,-2.62, 3.97, 7.95, 1.96, 1.59, 7.12, repro,
2007-06-22,-1.64, 3.83, 4.19, 1.96, 1.58, 7.07, repro,
2007-06-23,-1.53, 3.61, 9.22, 1.97, 1.63, 7.16, repro,
2007-06-24,-2.32, 2.74, 14.58, 1.99, 1.64, 7.31, repro,
2007-06-25,-1.28, 3.68, 6.82, 1.95, 1.58, 7.04, repro,
2007-06-26,-0.90, 3.85, 3.13, 1.97, 1.59, 7.11, repro,
2007-06-27,-1.51, 3.91, 4.64, 1.98, 1.59, 7.13, repro,
2007-06-28,-3.24, 4.37, 5.60, 1.97, 1.59, 7.11, repro,
2007-06-29,-1.13, 3.31, 8.46, 1.96, 1.59, 7.11, repro,
2007-06-30,-2.56, 4.45, 2.72, 1.97, 1.59, 7.08, repro,
2007-07-01,-2.71, 4.81, 4.40, 1.96, 1.59, 7.11, repro,
2007-07-02,-2.52, 5.20, 5.80, 1.96, 1.59, 7.15, repro,
2007-07-03,-3.50, 4.74, 1.18, 1.97, 1.58, 7.09, repro,
2007-07-04,-2.72, 4.96, 4.10, 1.95, 1.59, 7.10, repro,
2007-07-05,-2.19, 4.53, 4.95, 1.96, 1.60, 7.10, repro,
2007-07-06,-2.13, 5.09, -1.31, 1.98, 1.62, 7.22, repro,
2007-07-07,-4.26, 6.52, 6.39, 1.98, 1.61, 7.20, repro,
2007-07-08,-3.52, 5.79, 7.52, 1.99, 1.61, 7.23, repro,
2007-07-09,-2.64, 5.49, 6.02, 1.96, 1.60, 7.11, repro,
2007-07-10,-2.54, 5.00, 2.88, 1.96, 1.61, 7.18, repro,
2007-07-11,-0.72, 4.90, 5.88, 2.01, 1.68, 7.42, repro,
2007-07-12,-2.97, 6.32, 2.22, 2.04, 1.69, 7.41, repro,
2007-07-13,-2.42, 5.86, 5.98, 1.98, 1.60, 7.15, repro,
2007-07-14,-2.83, 6.73, 4.58, 1.99, 1.64, 7.17, repro,
2007-07-15,-2.66, 4.91, 4.90, 2.03, 1.68, 7.32, repro,
2007-07-16,-2.04, 5.94, 3.60, 1.97, 1.60, 7.14, repro,
2007-07-17,-0.20, 5.51, 7.04, 2.05, 1.69, 7.47, repro,
2007-07-18,0.78, 1.66, 5.83, 2.00, 1.61, 7.22, repro,
2007-07-19,-2.40, 6.93, 8.51, 2.01, 1.65, 7.24, repro,
2007-07-20,1.83, 5.76, 12.39, 2.02, 1.69, 7.32, repro,
2007-07-21,-3.00, 3.20, 3.53, 2.02, 1.65, 7.37, repro,
2007-07-22,-4.06, 4.11, 7.97, 2.03, 1.69, 7.35, repro,
2007-07-23,-2.87, 5.01, 5.26, 2.02, 1.69, 7.34, repro,
2007-07-24,-1.49, 2.61, -0.62, 2.03, 1.69, 7.35, repro,
2007-07-25,-0.75, 6.02, 10.00, 2.02, 1.68, 7.35, repro,
2007-07-26,-2.92, 3.43, 3.53, 2.04, 1.71, 7.47, repro,
2007-07-27,-3.56, 5.05, 1.18, 2.02, 1.70, 7.38, repro,
2007-07-28,-3.82, 5.41, 2.32, 2.03, 1.71, 7.47, repro,
2007-07-29,-4.03, 7.43, -0.96, 2.03, 1.69, 7.37, repro,
2007-07-30,-4.43, 6.18, 0.39, 1.99, 1.62, 7.24, repro,
2007-07-31,-3.65, 3.92, -5.59, 2.01, 1.67, 7.36, repro,
2007-08-01,-1.14, 5.00, 14.06, 1.97, 1.66, 7.37, repro,
2007-08-02,-3.51, 5.53, 2.09, 2.01, 1.66, 7.30, repro,
2007-08-03,-2.32, 4.31, -4.28, 1.98, 1.60, 7.18, repro,
2007-08-04,-1.32, 4.30, 7.11, 2.02, 1.62, 7.31, repro,
2007-08-05,-2.03, 3.58, 6.37, 1.97, 1.60, 7.17, repro,
2007-08-06,-2.57, 0.44, 18.82, 2.01, 1.68, 7.47, repro,
2007-08-07,-2.60, 4.15, 13.51, 2.00, 1.64, 7.31, repro,
2007-08-08,-3.01, 5.85, 0.66, 1.97, 1.60, 7.16, repro,
2007-08-09,-1.53, 5.27, 16.30, 1.97, 1.60, 7.14, repro,
2007-08-10,-0.93, 2.72, 22.90, 1.98, 1.61, 7.20, repro,
2007-08-11,0.13, 4.45, 20.25, 2.02, 1.71, 7.52, repro,
2007-08-12,0.30, 4.81, 20.67, 1.97, 1.62, 7.23, repro,
2007-08-13,-0.75, 4.14, 12.16, 1.98, 1.60, 7.20, repro,
2007-08-14,-3.87, 4.84, -2.00, 2.12, 1.71, 7.69, repro,
2007-08-15,-1.96, 3.28, 9.62, 2.11, 1.72, 7.74, repro,
2007-08-16,-2.08, 6.01, 8.82, 2.07, 1.65, 7.54, repro,
2007-08-17,-0.25, 6.02, 12.07, 2.09, 1.64, 7.51, repro,
2007-08-18,1.67, 3.41, 4.81, 2.10, 1.72, 7.83, repro,
2007-08-19,-1.28, 1.89, 2.95, 2.11, 1.79, 7.93, repro,
2007-08-20,-1.55, 4.82, -0.19, 2.06, 1.66, 7.46, repro,
2007-08-21,-2.32, 4.47, -3.26, 2.04, 1.65, 7.43, repro,
2007-08-22,-2.90, 4.07, 3.24, 2.03, 1.63, 7.34, repro,
2007-08-23,-2.41, 5.16, 14.85, 2.01, 1.61, 7.24, repro,
2007-08-24,-2.34, 6.04, 6.87, 2.12, 1.70, 7.61, repro,
2007-08-25,-1.15, 5.65, 3.71, 2.10, 1.76, 7.63, repro,
2007-08-26,-2.76, 6.57, 2.43, 2.10, 1.76, 7.74, repro,
2007-08-27,-3.43, 5.42, 6.98, 2.12, 1.76, 7.76, repro,
2007-08-28,-2.42, 6.27, -7.89, 2.07, 1.70, 7.47, repro,
2007-08-29,-2.52, 6.03, -6.28, 2.07, 1.70, 7.52, repro,
2007-08-30,-2.88, 5.20, -2.03, 2.07, 1.70, 7.50, repro,
2007-08-31,-1.91, 5.52, -5.04, 2.05, 1.69, 7.40, repro,
2007-09-01,-3.75, 5.15, -5.36, 2.06, 1.70, 7.56, repro,
2007-09-02,-1.50, 6.75, 0.53, 2.07, 1.71, 7.53, repro,
2007-09-03,-4.97, 6.31, 0.30, 2.07, 1.70, 7.48, repro,
2007-09-04,-2.00, 5.36, 4.41, 2.11, 1.75, 7.59, repro,
2007-09-05,3.36, -1.19, 21.09, 2.12, 1.74, 7.72, repro,
2007-09-06,-2.49, 3.63, 13.41, 2.10, 1.73, 7.62, repro,
2007-09-07,-2.51, 5.23, 5.79, 2.05, 1.70, 7.48, repro,
2007-09-08,-1.74, 6.49, -1.73, 2.19, 1.85, 8.06, repro,
2007-09-09,-2.90, 4.98, 1.48, 2.21, 1.83, 8.05, repro,
2007-09-10,-1.69, 5.26, 3.34, 2.12, 1.73, 7.62, repro,
2007-09-11,-3.38, 5.45, -4.07, 2.11, 1.73, 7.62, repro,
2007-09-12,-2.98, 4.98, -3.91, 2.09, 1.69, 7.43, repro,
2007-09-13,-3.21, 5.42, -2.05, 2.18, 1.72, 7.70, repro,
2007-09-14,-1.86, 1.97, 22.60, 2.13, 1.71, 7.64, repro,
2007-09-15,0.27, 2.79, 12.34, 2.15, 1.72, 7.70, repro,
2007-09-16,2.11, 3.80, 13.82, 2.10, 1.70, 7.53, repro,
2007-09-17,-1.83, 2.98, 5.60, 2.14, 1.78, 7.78, repro,
2007-09-18,-2.11, 4.11, 5.81, 2.06, 1.72, 7.52, repro,
2007-09-19,-3.06, 5.83, 9.00, 1.98, 1.62, 7.20, repro,
2007-09-20,2.79, 9.93, 16.95, 2.01, 1.63, 7.26, repro,
2007-09-21,-1.60, 2.50, 2.24, 2.06, 1.68, 7.54, repro,
2007-09-22,-3.88, 6.64, 17.63, 2.07, 1.69, 7.57, repro,
2007-09-23,-0.39, 3.21, 10.89, 2.12, 1.72, 7.79, repro,
2007-09-24,-1.35, 3.64, 4.44, 2.18, 1.78, 8.15, repro,
2007-09-25,-3.93, 3.63, 0.25, 2.03, 1.65, 7.40, repro,
2007-09-26,-1.91, 4.15, 2.94, 1.99, 1.62, 7.24, repro,
2007-09-27,-1.99, 4.75, -2.37, 2.04, 1.65, 7.39, repro,
2007-09-28,-0.93, 3.20, 9.89, 2.03, 1.70, 7.45, repro,
2007-09-29,-1.08, 2.44, 20.17, 2.00, 1.68, 7.48, repro,
2007-09-30,-3.11, 4.00, -0.32, 2.40, 1.95, 8.84, repro,
2007-10-01,-2.36, 4.55, 11.82, 2.04, 1.74, 7.67, repro,
2007-10-02,-3.12, 4.50, 8.62, 2.08, 1.74, 7.70, repro,
2007-10-03,-2.81, 4.04, 8.57, 2.08, 1.69, 7.58, repro,
2007-10-04,-0.59, 3.53, 9.25, 2.18, 1.77, 7.91, repro,
2007-10-05,-4.09, -2.40, 10.89, 2.08, 1.76, 7.83, repro,
2007-10-06,-2.80, 1.81, 5.40, 2.04, 1.70, 7.59, repro,
2007-10-07,-2.84, 4.10, 1.97, 2.07, 1.72, 7.68, repro,
2007-10-08,-3.46, 4.34, 10.60, 2.26, 1.81, 8.52, repro,
2007-10-09,-1.54, 4.82, 7.42, 2.22, 1.86, 8.21, repro,
2007-10-10,-3.62, 5.18, 3.65, 2.22, 1.78, 8.08, repro,
2007-10-11,-2.46, 4.42, 4.03, 2.02, 1.70, 7.52, repro,
2007-10-12,-3.47, 4.63, 4.09, 2.04, 1.76, 7.71, repro,
2007-10-13,-3.02, 4.05, 13.48, 2.00, 1.66, 7.35, repro,
2007-10-14,-2.15, 3.84, 4.30, 1.99, 1.66, 7.40, repro,
2007-10-15,-3.65, 2.89, 6.39, 2.00, 1.64, 7.32, repro,
2007-10-16,-3.08, 3.00, 17.34, 2.00, 1.65, 7.38, repro,
2007-10-17,-2.50, 3.11, 15.06, 1.98, 1.65, 7.33, repro,
2007-10-18,-2.82, 4.59, 5.40, 1.99, 1.65, 7.34, repro,
2007-10-19,-3.42, 4.34, 8.75, 1.99, 1.65, 7.33, repro,
2007-10-20,-2.93, 6.08, 11.89, 2.01, 1.69, 7.44, repro,
2007-10-21,-2.63, 3.90, 8.97, 1.99, 1.65, 7.37, repro,
2007-10-22,-2.98, 3.45, -1.93, 2.02, 1.68, 7.42, repro,
2007-10-23,-2.81, 5.21, -2.22, 2.02, 1.70, 7.53, repro,
2007-10-24,-3.47, 4.76, -2.66, 2.07, 1.74, 7.69, repro,
2007-10-25,-2.89, 4.65, 2.93, 1.98, 1.64, 7.29, repro,
2007-10-26,-3.13, 4.57, -1.59, 2.02, 1.68, 7.42, repro,
2007-10-27,-2.85, 4.76, -6.16, 2.00, 1.64, 7.30, repro,
2007-10-28,-3.42, 5.61, -1.69, 1.97, 1.63, 7.24, repro,
2007-10-29,-3.15, 4.21, 0.22, 1.99, 1.64, 7.32, repro,
2007-10-30,-3.41, 4.57, 4.40, 1.99, 1.64, 7.36, repro,
2007-10-31,-3.89, 4.38, 0.28, 1.98, 1.64, 7.32, repro,
2007-11-01,-2.57, 4.19, -1.05, 1.95, 1.61, 7.14, repro,
2007-11-02,-2.98, 4.05, 1.11, 1.96, 1.61, 7.15, repro,
2007-11-03,-3.60, 4.49, 0.54, 1.94, 1.60, 7.09, repro,
2007-11-04,-2.95, 4.26, -1.79, 1.96, 1.61, 7.17, repro,
2007-11-05,-3.23, 4.53, -2.21, 1.97, 1.62, 7.18, repro,
2007-11-06,-3.58, 4.14, -4.09, 2.03, 1.72, 7.55, repro,
2007-11-07,-3.76, 3.88, -2.98, 1.97, 1.61, 7.12, repro,
2007-11-08,-3.32, 3.56, -2.91, 1.98, 1.65, 7.28, repro,
2007-11-09,-2.99, 4.04, 0.78, 2.04, 1.74, 7.48, repro,
2007-11-10,-3.89, 4.15, 1.21, 1.97, 1.61, 7.17, repro,
2007-11-11,-3.10, 2.79, 0.51, 1.98, 1.62, 7.23, repro,
2007-11-12,-3.31, 3.95, -0.30, 1.97, 1.60, 7.16, repro,
2007-11-13,-3.11, 3.23, 5.31, 1.96, 1.61, 7.15, repro,
2007-11-14,-2.00, 4.17, -1.35, 1.97, 1.63, 7.20, repro,
2007-11-15,-2.51, 3.34, -0.75, 1.99, 1.64, 7.28, repro,
2007-11-16,-1.78, 2.96, 1.37, 1.98, 1.64, 7.30, repro,
2007-11-17,-2.06, 3.80, 1.33, 1.99, 1.64, 7.30, repro,
2007-11-18,-2.44, 3.75, 0.22, 1.98, 1.64, 7.26, repro,
2007-11-19,-3.12, 3.94, 3.18, 1.94, 1.61, 7.13, repro,
2007-11-20,-2.15, 3.12, -0.64, 2.02, 1.71, 7.40, repro,
2007-11-21,-1.12, 2.65, 0.74, 2.00, 1.68, 7.35, repro,
2007-11-22,-2.34, 2.57, -1.76, 2.02, 1.68, 7.40, repro,
2007-11-23,-1.46, 4.30, 5.21, 2.05, 1.78, 7.60, repro,
2007-11-24,-2.13, 2.37, 1.51, 2.03, 1.71, 7.44, repro,
2007-11-25,-2.37, 2.88, 4.71, 2.03, 1.73, 7.49, repro,
2007-11-26,-1.50, 2.19, 0.26, 2.11, 1.85, 7.90, repro,
2007-11-27,-2.07, 2.61, 0.27, 2.04, 1.74, 7.50, repro,
2007-11-28,-1.86, 2.39, -3.26, 2.02, 1.68, 7.34, repro,
2007-11-29,-1.93, 4.29, 1.38, 2.16, 1.79, 7.87, repro,
2007-11-30,-2.09, 3.40, 5.53, 2.07, 1.78, 7.66, repro,
2007-12-01,-1.95, 2.56, 4.54, 2.07, 1.78, 7.63, repro,
2007-12-02,-1.53, 3.14, 0.38, 2.14, 1.81, 7.90, repro,
2007-12-03,-1.64, 3.11, -8.98, 2.16, 1.78, 8.05, repro,
2007-12-04,-1.89, 2.26, -6.02, 2.20, 1.88, 8.32, repro,
2007-12-05,-2.17, 3.43, 10.02, 2.24, 1.93, 8.52, repro,
2007-12-06,-2.01, 2.93, 4.95, 2.33, 2.00, 8.87, repro,
2007-12-07,-1.23, 1.90, 7.95, 2.14, 1.83, 8.06, repro,
2007-12-08,-1.15, 2.00, 4.16, 2.05, 1.73, 7.49, repro,
2007-12-09,-1.18, 1.62, -1.14, 2.42, 2.15, 9.08, repro,
2007-12-10,-1.05, 1.94, 2.88, 2.08, 1.78, 7.64, repro,
2007-12-11,-0.39, 1.85, 4.54, 2.01, 1.73, 7.48, repro,
2007-12-12,-0.38, 2.72, -1.91, 2.04, 1.68, 7.56, repro,
2007-12-13,-1.01, 1.46, -3.73, 2.09, 1.67, 7.53, repro,
2007-12-14,-2.47, 2.06, 7.79, 2.04, 1.64, 7.42, repro,
2007-12-15,-2.96, 1.48, 3.68, 2.03, 1.65, 7.44, repro,
2007-12-16,-2.02, 2.13, 3.80, 2.01, 1.64, 7.33, repro,
2007-12-17,-2.64, 3.00, 10.09, 2.06, 1.72, 7.56, repro,
2007-12-18,-1.32, 1.34, 10.91, 2.03, 1.66, 7.45, repro,
2007-12-19,-2.16, 1.21, 6.51, 2.05, 1.68, 7.45, repro,
2007-12-20,-2.28, 1.78, 5.69, 2.04, 1.65, 7.42, repro,
2007-12-21,-1.99, 1.61, -0.02, 2.11, 1.70, 7.63, repro,
2007-12-22,-1.60, 1.80, 0.70, 2.13, 1.73, 7.88, repro,
2007-12-23,-1.29, 1.39, 3.35, 2.04, 1.70, 7.54, repro,
2007-12-24,-2.26, 2.17, 8.48, 2.04, 1.65, 7.36, repro,
2007-12-25,-3.41, 2.08, 10.92, 2.04, 1.63, 7.35, repro,
2007-12-26,-1.70, 1.25, 9.23, 2.05, 1.66, 7.42, repro,
2007-12-27,-1.91, 0.90, 16.49, 2.03, 1.66, 7.39, repro,
2007-12-28,-2.15, 1.36, 9.16, 2.08, 1.70, 7.58, repro,
2007-12-29,-2.97, 1.56, 8.15, 2.06, 1.65, 7.41, repro,
2007-12-30,-1.99, 0.93, 6.86, 2.09, 1.70, 7.52, repro,
2007-12-31,-1.73, 2.48, -0.20, 2.03, 1.62, 7.32, repro,
2008-01-01,-1.74, 1.46, -2.45, 1.99, 1.62, 7.27, repro,
2008-01-02,-3.33, 2.28, -2.69, 2.00, 1.60, 7.26, repro,
2008-01-03,-2.47, 2.32, 3.59, 2.04, 1.67, 7.46, repro,
2008-01-04,-1.98, 2.63, 7.94, 2.00, 1.59, 7.19, repro,
2008-01-05,-1.20, -2.10, 16.47, 2.01, 1.60, 7.25, repro,
2008-01-06,-2.94, -2.62, 12.31, 2.03, 1.61, 7.28, repro,
2008-01-07,-1.60, 1.33, 10.70, 1.96, 1.59, 7.15, repro,
2008-01-08,-2.86, 2.03, 8.16, 2.03, 1.59, 7.35, repro,
2008-01-09,-2.63, 2.32, 9.44, 2.05, 1.61, 7.38, repro,
2008-01-10,-2.82, 1.86, 3.22, 2.00, 1.61, 7.25, repro,
2008-01-11,-2.43, 1.80, 2.40, 1.99, 1.60, 7.26, repro,
2008-01-12,-1.40, 2.24, 4.56, 1.96, 1.60, 7.17, repro,
2008-01-13,-3.60, 2.82, 0.94, 1.97, 1.60, 7.17, repro,
2008-01-14,-2.59, 2.98, 3.50, 1.97, 1.60, 7.18, repro,
2008-01-15,-2.62, 1.74, 3.76, 1.99, 1.61, 7.26, repro,
2008-01-16,-1.89, 1.49, 4.05, 2.04, 1.63, 7.44, repro,
2008-01-17,-2.39, 1.45, 6.08, 2.01, 1.62, 7.37, repro,
2008-01-18,-2.11, 0.94, 7.12, 1.97, 1.64, 7.27, repro,
2008-01-19,-1.96, 2.10, 2.65, 1.96, 1.60, 7.16, repro,
2008-01-20,-2.41, 2.11, 5.67, 1.96, 1.61, 7.18, repro,
2008-01-21,-2.93, 0.88, 4.18, 1.98, 1.61, 7.22, repro,
2008-01-22,-3.05, 2.33, 2.78, 1.97, 1.61, 7.19, repro,
2008-01-23,-1.24, 1.48, 8.47, 1.95, 1.60, 7.11, repro,
2008-01-24,0.83, 1.14, 18.32, 1.97, 1.63, 7.23, repro,
2008-01-25,-1.10, 1.66, 6.54, 1.97, 1.61, 7.18, repro,
2008-01-26,-2.29, 1.05, 4.80, 1.97, 1.61, 7.20, repro,
2008-01-27,-3.18, 3.26, 10.69, 1.98, 1.61, 7.21, repro,
2008-01-28,-5.33, 0.34, 6.66, 2.02, 1.61, 7.23, repro,
2008-01-29,-2.48, 1.24, 13.66, 2.05, 1.73, 7.50, repro,
2008-01-30,-1.91, 1.78, 8.33, 2.07, 1.70, 7.53, repro,
2008-01-31,-2.11, 1.66, 5.76, 1.96, 1.62, 7.24, repro,